Location: F?ge?el
(45.8833°N, 22.5833°E)
Time: 05:54:12
(UTC+00:00)

Cosmos 1484 Rocket - Pass Details

Date: 17 November 2025
Orbit: 443 x 473 km, 97.6° (Epoch: 04 December)

Event Time Altitude Azimuth Distance (km) Brightness Sun altitude
Rises 15:22:19 0° 171° (S) 2,495 6.4 -5.0°
Reaches altitude 10° 15:24:21 10° 173° (S) 1,628 5.4 -5.3°
Maximum altitude 15:27:50 70° 257° (WSW) 507 2.9 -5.8°
Drops below altitude 10° 15:31:24 10° 343° (NNW) 1,655 5.2 -6.4°
Sets 15:33:29 0° 346° (NNW) 2,542 6.2 -6.8°
